Imperial, CA

7:01 PM PST on February 26, 2017 (GMT -0800)
Imperial County

Weather History for KIPL - July, 2012

Change the Weather History Date:

Saturday, July 14, 2012

  Actual Average Record
Temperature  
Mean Temperature 88 °F -  
Max Temperature 102 °F 106 °F 117 °F (2003)
Min Temperature 77 °F 76 °F 50 °F (2000)
Cooling Degree Days 24    
Growing Degree Days 38 (Base 50)    
Moisture  
Dew Point 72 °F    
Average Humidity 60    
Maximum Humidity 90    
Minimum Humidity 30    
Precipitation  
Precipitation 0.00 in - - ()
Sea Level Pressure  
Sea Level Pressure 29.81 in    
Wind  
Wind Speed 3 mph (South)    
Max Wind Speed 12 mph    
Max Gust Speed -    
Visibility 10 miles    
Events      
Averages and records for this station are not official NWS values.
T = Trace of Precipitation, MM = Missing Value Source: NWS Daily Summary

Daily Weather History Graph

Daily Weather History Graph

Search for Another Location

Airport or City:

Trip Planner

Search our weather history database for the weather conditions in past years. The results will help you decide how hot, cold, wet, or windy it might be!

Date:

Astronomy

Jul. 14, 2012 Rise Set
Actual Time 5:44 AM PDT 7:51 PM PDT
Civil Twilight 5:16 AM PDT 8:19 PM PDT
Nautical Twilight 4:42 AM PDT 8:53 PM PDT
Astronomical Twilight 4:05 AM PDT 9:30 PM PDT
Moon 2:00 AM PDT (7/14) 4:20 PM PDT (7/14)
Length of Visible Light 15h 02m
Length of Day
14h 06m
Waning Crescent, 18% of the Moon is Illuminated
Jul 14
Waning Crescent
Jul 18
New
Jul 26
First Quarter
Aug 1
Full
Aug 9
Last Quarter

Hourly Weather History & Observations

Time (PDT) Temp. Heat Index Dew Point Humidity Pressure Visibility Wind Dir Wind Speed Gust Speed Precip Events Conditions
12:53 AM 80.1 °F 84.5 °F 73.9 °F 81% 29.84 in 10.0 mi Calm Calm - N/A   Clear
1:53 AM 79.0 °F - 75.0 °F 88% 29.83 in 10.0 mi Calm Calm - N/A   Clear
2:53 AM 80.6 °F 85.4 °F 73.4 °F 79% 29.82 in 10.0 mi East 3.5 mph - N/A   Clear
3:53 AM 79.0 °F - 73.9 °F 84% 29.82 in 10.0 mi Calm Calm - N/A   Scattered Clouds
4:53 AM 79.0 °F - 73.9 °F 84% 29.83 in 10.0 mi SE 3.5 mph - N/A   Mostly Cloudy
5:53 AM 77.0 °F - 73.9 °F 90% 29.85 in 10.0 mi SSW 3.5 mph - N/A   Clear
6:53 AM 79.0 °F - 75.0 °F 88% 29.86 in 10.0 mi WSW 4.6 mph - N/A   Clear
7:53 AM 81.0 °F 87.3 °F 75.9 °F 85% 29.87 in 10.0 mi WSW 5.8 mph - N/A   Clear
8:53 AM 84.9 °F 93.3 °F 75.0 °F 72% 29.88 in 10.0 mi SW 4.6 mph - N/A   Clear
9:53 AM 88.0 °F 96.5 °F 73.9 °F 63% 29.88 in 10.0 mi Calm Calm - N/A   Clear
10:53 AM 91.0 °F 99.3 °F 73.0 °F 55% 29.87 in 10.0 mi Variable 3.5 mph - N/A   Scattered Clouds
11:53 AM 91.0 °F 99.3 °F 73.0 °F 55% 29.86 in 10.0 mi Calm Calm - N/A   Partly Cloudy
12:53 PM 95.0 °F 103.2 °F 72.0 °F 47% 29.83 in 9.0 mi West 5.8 mph - N/A   Clear
1:53 PM 99.0 °F 107.0 °F 71.1 °F 40% 29.80 in 10.0 mi SSE 10.4 mph - N/A   Clear
2:53 PM 99.0 °F 107.0 °F 71.1 °F 40% 29.78 in 10.0 mi Variable 4.6 mph - N/A   Clear
3:53 PM 99.0 °F 108.5 °F 72.0 °F 42% 29.75 in 10.0 mi West 9.2 mph - N/A   Clear
4:53 PM 99.0 °F 106.2 °F 70.0 °F 39% 29.73 in 10.0 mi WSW 3.5 mph - N/A   Clear
5:53 PM 100.9 °F 108.2 °F 69.1 °F 36% 29.72 in 10.0 mi Variable 3.5 mph - N/A   Clear
6:53 PM 100.0 °F 104.9 °F 66.9 °F 34% 29.72 in 10.0 mi SSE 5.8 mph - N/A   Clear
7:53 PM 99.0 °F 104.2 °F 68.0 °F 36% 29.74 in 10.0 mi ESE 4.6 mph - N/A   Scattered Clouds
8:53 PM 97.0 °F 97.4 °F 61.0 °F 30% 29.75 in 10.0 mi SE 11.5 mph - N/A   Clear
9:53 PM 89.1 °F 95.0 °F 71.1 °F 55% 29.78 in 10.0 mi WSW 6.9 mph - N/A   Mostly Cloudy
10:53 PM 91.9 °F 97.4 °F 70.0 °F 48% 29.78 in 10.0 mi ESE 5.8 mph - N/A   Clear
11:53 PM 89.1 °F 97.0 °F 73.0 °F 59% 29.79 in 10.0 mi SE 8.1 mph - N/A   Clear